Preview of NWS' New Version of Forecast
This preview is not operational and should not be used for support decisions.

Regional Weather Roundup (RWR)

Issued by National Weather Service (NWS)

                            
000
ASUS46 KPQR 221910
RWROR 

OREGON REGIONAL WEATHER ROUNDUP
NATIONAL WEATHER SERVICE PORTLAND OR
1200 PM PDT SUN SEP 22 2019

NOTE: "FAIR" INDICATES FEW OR NO CLOUDS BELOW 12,000 FEET WITH
NO SIGNIFICANT WEATHER AND/OR OBSTRUCTIONS TO VISIBILITY.

ORZ001>013-222000-
NORTHWEST OREGON

  
CITY           SKY/WX    TMP DP  RH WIND       PRES   REMARKS
ASTORIA        CLOUDY    63  60  90 SE10      29.83S                  
TILLAMOOK      RAIN      63  61  94 SE6       29.90F                  
NEWPORT        LGT RAIN  63  61  94 S8        29.93S                  
PORTLAND       CLOUDY    62  57  83 E6        29.90S                  
VANCOUVER WA   CLOUDY    62  58  86 SE7       29.90S                  
SCAPPOOSE      CLOUDY    61  59  93 SE7       29.88F                  
HILLSBORO      CLOUDY    62  59  90 S7        29.89S                  
AURORA         LGT RAIN  61  58  90 SW6       29.91S FOG              
MCMINNVILLE    CLOUDY    61  59  93 E6        29.89F                  
SALEM          CLOUDY    61  58  90 S9        29.89F                  
CORVALLIS      CLOUDY    61  59  93 S8        29.91F                  
EUGENE         CLOUDY    62  58  86 S10       29.93R                  
CRESWELL       PTSUNNY   61  61 100 CALM      29.91F                  
$$

ORZ021-028-222000-
SOUTHWEST OREGON

  
CITY           SKY/WX    TMP DP  RH WIND       PRES   REMARKS
NORTH BEND     CLOUDY    65  62  90 S10       29.93S                  
BROOKINGS      LGT RAIN  59  59 100 SE5       30.01S                  
ROSEBURG       LGT RAIN  61  57  87 S6        29.95F                  
SEXTON SUMMIT  LGT RAIN  52  50  93 S5        30.01F FOG              
GRANTS PASS    FAIR      55  52  88 CALM      30.02S                  
MEDFORD        LGT RAIN  55  53  93 E6        29.98F                  
$$

ORZ014>016-041-222000-
COLUMBIA GORGE

  
CITY           SKY/WX    TMP DP  RH WIND       PRES   REMARKS
TROUTDALE      LGT RAIN  62  58  86 CALM      29.90F                  
HOOD RIVER     LGT RAIN  59  55  88 CALM      29.90S                  
THE DALLES     CLOUDY    64  54  69 NW6       29.88S                  
$$

ORZ029>031-041-044-049-050-061>064-502-503-505>511-222000-
EASTERN OREGON

  
CITY           SKY/WX    TMP DP  RH WIND       PRES   REMARKS
MADRAS         CLOUDY    64  46  52 SW8       29.95S                  
REDMOND        LGT RAIN  59  52  77 SE7       29.97R                  
BEND           DRIZZLE   59  46  63 S10       29.97S                  
PRINEVILLE     CLOUDY    61  48  63 SW9G16    29.98R                  
KLAMATH FALLS  CLOUDY    56  48  74 SE3       30.03F                  
LAKEVIEW       CLOUDY    63  42  46 S12       30.05F                  
HERMISTON      MOSUNNY   72  52  49 W6        29.85F                  
PENDLETON      MOSUNNY   73  47  39 NW6       29.86F                  
JOHN DAY       CLOUDY    70  42  35 S12G18    29.95F                  
MEACHAM        PTSUNNY   69  44  40 CALM      29.94F                  
LA GRANDE      PTSUNNY   68  43  40 S17G24    29.94F                  
BAKER CITY     PTSUNNY   70  43  37 SE13      29.98F                  
BURNS          MOSUNNY   66  41  40 CALM      30.00F                  
ROME             N/A     68  40  35 CALM      30.00F                  
ONTARIO        SUNNY     70  46  42 VRB3      30.00F                  
$$